Tracking 19909 objects as of 21-Oct-2019
HD Live streaming from Space Station
objects crossing your sky now

NOAA 16 DEB

Track NOAA 16 DEB now!
10-day predictions


NORAD ID: 41129
Int'l Code: 2000-055BL
Perigee: 711.3 km
Apogee: 839.8 km
Inclination: 98.9 °
Period: 100.2 minutes
Semi major axis: 7146 km
RCS: Unknown
Launch date: September 21, 2000
Source: United States (US)
Launch site: AIR FORCE WESTERN TEST RANGE (AFWTR)

Note: This is SATELLITE DEBRIS
aabbcc
Your satellite tracking list
Your tracking list is empty




NASA's NSSDC Master Catalog

Two Line Element Set (TLE):
1 41129U 00055BL  19294.10567281  .00002362  00000-0  77624-3 0  9994
2 41129  98.8804  58.2370 0089879 238.4289 120.8098 14.37010986203044
Source of the keplerian elements: AFSPC